[[{"header":{"parameterUnit":"m.s-1","parameterCategory":1,"la1":30.2991,"la2":30.254,"lo1":-89.0895,"lo2":-89.0444,"dy":0.0017,"dx":0.0017,"nx":28,"ny":28,"refTime":"2024-06-08T03:00:00:Z","depth":0,"parameterNumber":2,"parameterNumberName":"U-component_of_WINDS"},"data":[0,0,0,0,0,0,0,0,0,0,0,0,0,0,0,0,0,0,0,0,0,0,0,0,0,0,0,0,0,0,0,0,0,0,0,0,0,0,0,0,0,0,0,0,0,0,0,0,0,0,0,0,0,0,0,0,0,0,-2.916,-2.9159,0,-2.912,-2.912,-2.9119,-2.895,-2.8946,-2.8942,-2.8938,-2.8904,-2.8907,-2.891,0,0,0,0,0,0,0,0,0,0,0,0,0,-2.9094,-2.9096,-2.916,-2.9159,-2.9159,-2.912,-2.912,-2.9119,-2.8951,-2.8946,-2.8941,-2.8937,-2.8903,-2.8906,-2.891,0,0,0,0,0,0,0,0,0,0,0,0,0,-2.9095,-2.9096,-2.916,-2.907,-2.9061,-2.912,-2.912,-2.9119,-2.8952,-2.8946,-2.894,-2.8934,-2.8902,-2.8906,-2.891,-2.9054,0,0,-2.8923,-2.8925,0,0,0,0,0,0,0,0,-2.9095,-2.9098,-2.9084,-2.9076,-2.9067,-2.9034,-2.9083,-2.9098,-2.8953,-2.8994,-2.8938,-2.8932,-2.8952,-2.8952,-2.8958,-2.9053,-2.9051,-2.8923,-2.8926,-2.8928,-2.8929,0,0,0,0,0,0,0,-2.9096,-2.9099,-2.9144,-2.9084,-2.9073,-2.9033,-2.9027,-2.9085,-2.9007,-2.899,-2.8977,-2.8975,-2.8947,-2.8954,-2.8956,-2.9051,-2.8923,-2.8927,-2.8929,-2.8931,-2.9261,-2.9267,0,0,0,0,0,0,-2.9107,-2.91,-2.9145,-2.9143,-2.9067,-2.9039,-2.9032,-2.9051,-2.9006,-2.8993,-2.898,-2.8967,-2.895,-2.8951,-2.8954,-2.9119,-2.8928,-2.8931,-2.8934,-2.9254,-2.9262,-2.9269,0,0,0,0,0,0,-2.9107,-2.9113,-2.9147,-2.9118,-2.9119,-2.9046,-2.9069,-2.9053,-2.906,-2.8998,-2.8984,-2.9002,-2.8945,-2.8948,-2.903,-2.9116,-2.8933,-2.8937,-2.9247,-2.9257,-2.9265,-2.9452,0,0,0,0,0,0,-2.9105,-2.9114,-2.9167,-2.912,-2.9121,-2.9223,-2.9074,-2.9056,-2.9067,-2.905,-2.9015,-2.9004,-2.8941,-2.9025,-2.9034,-2.9118,-2.894,-2.9239,-2.9251,-2.9262,-2.9438,-2.9467,-2.9491,0,0,0,0,0,-2.9104,-2.9223,-2.9171,-2.9177,-2.9186,-2.9229,-2.9229,-2.9153,-2.9075,-2.9128,-2.9088,-2.9005,-2.9104,-2.9034,-2.9044,-2.9131,-2.9233,-2.9248,-2.9261,-2.9426,-2.9461,-2.9491,0,0,0,0,0,0,-2.9285,-2.9216,-2.9157,-2.9264,-2.9253,-2.92,-2.9265,-2.9193,-2.9206,-2.919,-2.9096,-2.909,-2.9185,-2.9165,-2.9089,-2.9267,-2.9155,-2.9171,-2.9277,-2.9309,-2.9336,-2.9339,-2.8944,0,0,0,0,0,-2.9337,-2.9376,-2.9313,-2.9414,-2.9411,-2.934,-2.9355,-2.9297,-2.9283,-2.9278,-2.9244,-2.9235,-2.9263,-2.9285,-2.9308,-2.9433,-2.9424,-2.9497,-2.9524,-2.9546,-2.9563,-2.9627,-2.9659,-2.9315,-2.9315,-2.9315,0,0,-2.9447,-2.9413,-2.9444,-2.945,-2.9434,-2.9477,-2.9337,-2.9389,-2.9421,-2.9286,-2.9361,-2.9336,-2.9319,-2.9423,-2.9467,-2.941,-2.9655,-2.9564,-2.9582,-2.9586,-2.9645,-2.9677,-2.9706,-2.9325,-2.9323,-2.9321,0,0,-2.9667,-2.9645,-2.9726,-2.9713,-2.969,-2.9641,-2.9661,-2.9617,-2.9595,-2.9667,-2.9567,-2.9604,-2.9656,-2.9648,-2.9651,-2.9865,-2.979,-2.9876,-3.0016,-3.008,-3.0107,-3.013,-3.0208,-3.0237,-2.9891,-2.9892,-2.9892,0,-2.9807,-2.9866,-2.9778,-2.9836,-2.9842,-2.9718,-2.9801,-2.9792,-2.978,-2.9788,-2.9722,-2.9783,-2.9764,-2.9864,-2.9916,-2.9922,-2.9942,-2.988,-3.0109,-3.0132,-3.0153,-3.0226,-3.0255,-2.9903,-2.9901,-2.99,-2.9899,0,-3.0038,-3.0081,-3.0149,-3.0137,-3.015,-3.022,-3.0144,-3.0168,-3.0108,-3.0066,-3.0142,-3.0113,-3.0128,-3.0147,-3.009,-3.0239,-3.0204,-3.0126,-3.0011,-3.0198,-3.0265,-3.0292,-2.9918,-2.9914,-2.9911,-2.9908,0,0,-3.0376,-3.0311,-3.0338,-3.033,-3.0295,-3.0327,-3.0391,-3.0402,-3.0425,-3.042,-3.0472,-3.0517,-3.0444,-3.0447,-3.0388,-3.0444,-3.0616,-3.0358,-3.0356,-3.0408,-3.0779,-3.0839,-3.0873,-3.0564,-3.0569,-3.0573,-3.078,0,-3.0587,-3.0691,-3.0613,-3.0731,-3.0769,-3.0651,-3.0707,-3.0692,-3.0654,-3.0682,-3.064,-3.0674,-3.0574,-3.0575,-3.0625,-3.0585,-3.0689,-3.0568,-3.0614,-3.0616,-3.0623,-3.0907,-3.0972,-3.1169,-3.0806,-3.081,-3.0813,0,-3.0849,-3.0852,-3.0973,-3.0927,-3.094,-3.0992,-3.0996,-3.1023,-3.1004,-3.0972,-3.0974,-3.0899,-3.096,-3.0846,-3.0929,-3.0848,-3.0861,-3.0844,-3.085,-3.0853,-3.0728,-3.092,-3.123,-3.1261,-3.0853,-3.085,-3.0847,0,-3.1084,-3.1119,-3.1195,-3.1192,-3.114,-3.1179,-3.116,-3.1134,-3.1145,-3.1149,-3.1156,-3.1167,-3.1175,-3.1186,-3.1117,-3.104,-3.1209,-3.1089,-3.1186,-3.1188,-3.1229,-3.1228,-3.1548,-3.1235,-3.1235,-3.1234,-3.1233,0,-3.1329,-3.1409,-3.13,-3.1348,-3.1433,-3.1341,-3.1429,-3.1397,-3.1375,-3.1415,-3.1314,-3.1354,-3.1259,-3.129,-3.1236,-3.1313,-3.1317,-3.1294,-3.128,-3.1305,-3.1308,-3.1314,-3.1299,-3.1242,-3.124,-3.1239,-3.1237,0,-3.1608,-3.1538,-3.1614,-3.1557,-3.1545,-3.161,-3.1562,-3.1605,-3.1558,-3.161,-3.1618,-3.1546,-3.1577,-3.1508,-3.153,-3.1493,-3.1603,-3.1566,-3.161,-3.1599,-3.17,-3.1692,-3.2037,-3.2078,-3.1738,-3.1742,-3.1744,0,-3.1771,-3.1828,-3.1776,-3.1794,-3.178,-3.1811,-3.1821,-3.1733,-3.1748,-3.1728,-3.1774,-3.1795,-3.1808,-3.1863,-3.1814,-3.183,-3.1793,-3.1913,-3.1796,-3.1818,-3.1797,-3.1795,-3.18,-3.1938,-3.1942,-3.1946,-3.1949,0,-3.2066,-3.2028,-3.2045,-3.205,-3.2064,-3.2065,-3.2058,-3.2079,-3.1985,-3.2007,-3.2036,-3.2046,-3.2066,-3.2089,-3.2094,-3.2075,-3.1998,-3.1985,-3.2009,-3.2036,-3.206,-3.2049,-3.1678,-3.1979,-3.1976,-3.1973,-3.1972,-3.197,-3.2292,-3.2337,-3.2307,-3.233,-3.2314,-3.231,-3.2346,-3.2303,-3.2324,-3.2332,-3.2279,-3.2319,-3.2297,-3.2294,-3.2283,-3.2314,-3.226,-3.2295,-3.2303,-3.2314,-3.2331,-3.2053,-3.2315,-3.2314,-3.2313,-3.2312,-3.2311,0,-3.2584,-3.2557,-3.2578,-3.257,-3.2588,-3.2509,-3.2497,-3.2518,-3.2554,-3.2538,-3.2551,-3.2584,-3.2605,-3.2557,-3.2571,-3.2605,-3.257,-3.2612,-3.261,-3.2607,-3.2377,-3.2356,-3.2641,-3.2641,-3.2641,-3.264,-3.264,-3.264,-3.2738,-3.281,-3.2767,-3.2831,-3.2804,-3.284,-3.284,-3.2836,-3.2822,-3.2863,-3.2879,-3.2845,-3.2817,-3.2827,-3.2844,-3.2829,-3.284,-3.2895,-3.2869,-3.2656,-3.2624,-3.2593,-3.2572,-3.2898,-3.2898,-3.3096,-3.3098,-3.3099]},{"header":{"parameterUnit":"m.s-1","parameterCategory":1,"la1":30.2991,"la2":30.254,"lo1":-89.0895,"lo2":-89.0444,"dy":0.0017,"dx":0.0017,"nx":28,"ny":28,"refTime":"2024-06-08T03:00:00:Z","depth":0,"parameterNumber":3,"parameterNumberName":"V-component_of_WINDS"},"data":[0,0,0,0,0,0,0,0,0,0,0,0,0,0,0,0,0,0,0,0,0,0,0,0,0,0,0,0,0,0,0,0,0,0,0,0,0,0,0,0,0,0,0,0,0,0,0,0,0,0,0,0,0,0,0,0,0,0,-1.9692,-1.9693,0,-1.9774,-1.9775,-1.9776,-1.9809,-1.9809,-1.9808,-1.9808,-1.9889,-1.9892,-1.9894,0,0,0,0,0,0,0,0,0,0,0,0,0,-1.9561,-1.9563,-1.9692,-1.9693,-1.9694,-1.9774,-1.9775,-1.9776,-1.9809,-1.9809,-1.9808,-1.9808,-1.9889,-1.9891,-1.9894,0,0,0,0,0,0,0,0,0,0,0,0,0,-1.9627,-1.9564,-1.9692,-1.972,-1.9723,-1.9773,-1.9775,-1.9776,-1.9809,-1.9809,-1.9808,-1.9808,-1.9888,-1.9891,-1.9895,-1.9922,0,0,-1.9905,-1.9907,0,0,0,0,0,0,0,0,-1.9624,-1.9632,-1.9715,-1.9718,-1.9722,-1.9781,-1.9758,-1.9825,-1.9809,-1.9776,-1.9808,-1.9808,-1.9853,-1.986,-1.9876,-1.9926,-1.9929,-1.9906,-1.9908,-1.9909,-1.991,0,0,0,0,0,0,0,-1.9619,-1.9629,-1.9724,-1.9716,-1.972,-1.9728,-1.9737,-1.9771,-1.9815,-1.9779,-1.9782,-1.9791,-1.9855,-1.9872,-1.9878,-1.993,-1.9906,-1.9909,-1.9911,-1.9912,-2.0006,-2.0006,0,0,0,0,0,0,-1.961,-1.9625,-1.9722,-1.9727,-1.9671,-1.973,-1.974,-1.9762,-1.9815,-1.9823,-1.9791,-1.9792,-1.9866,-1.9874,-1.9881,-1.9916,-1.9909,-1.9913,-1.9915,-2.0006,-2.0006,-2.0006,0,0,0,0,0,0,-1.9607,-1.9618,-1.9718,-1.9677,-1.969,-1.9733,-1.9757,-1.9764,-1.9781,-1.9824,-1.9832,-1.9801,-1.9866,-1.9876,-1.9911,-1.9919,-1.9914,-1.9917,-2.0005,-2.0006,-2.0006,-1.9986,0,0,0,0,0,0,-1.9603,-1.9617,-1.9629,-1.9677,-1.9692,-1.9749,-1.9757,-1.9766,-1.9787,-1.9789,-1.9835,-1.9842,-1.9867,-1.9906,-1.9915,-1.9924,-1.992,-2.0005,-2.0005,-2.0006,-1.9986,-1.9986,-1.9985,0,0,0,0,0,-1.9598,-1.9619,-1.9629,-1.9641,-1.9708,-1.9749,-1.9758,-1.9786,-1.9788,-1.9799,-1.9827,-1.9841,-1.9917,-1.9909,-1.992,-1.993,-2.0004,-2.0005,-2.0006,-1.9986,-1.9986,-1.9985,0,0,0,0,0,0,-1.9571,-1.9626,-1.9638,-1.9675,-1.9707,-1.9754,-1.977,-1.9785,-1.9817,-1.9817,-1.985,-1.986,-1.9893,-1.9915,-1.9906,-1.9958,-1.9961,-1.9964,-1.9943,-1.9943,-1.9942,-1.9936,-1.9923,0,0,0,0,0,-1.9569,-1.9599,-1.9646,-1.9674,-1.969,-1.9727,-1.9746,-1.9765,-1.9799,-1.9813,-1.9843,-1.9875,-1.9906,-1.9926,-1.9956,-1.9989,-1.9999,-2.0001,-2.0001,-2.0,-2.0002,-2.0021,-2.0022,-2.0009,-2.0009,-2.0009,0,0,-1.9566,-1.96,-1.9617,-1.9669,-1.9696,-1.9726,-1.9738,-1.9769,-1.979,-1.9817,-1.9853,-1.9876,-1.9914,-1.9948,-1.9964,-1.9967,-2.0008,-2.0001,-2.0001,-2.0003,-2.0022,-2.0023,-2.0024,-2.001,-2.001,-2.001,0,0,-1.9575,-1.9604,-1.9631,-1.9657,-1.9698,-1.9723,-1.9729,-1.9774,-1.9791,-1.9827,-1.9848,-1.9873,-1.9926,-1.9952,-1.9972,-1.999,-2.0003,-1.9999,-1.9997,-2.0014,-2.0015,-2.0016,-2.0022,-2.0024,-2.0001,-2.0,-2.0,0,-1.9565,-1.9611,-1.9642,-1.9672,-1.9693,-1.972,-1.9746,-1.977,-1.9819,-1.9833,-1.9835,-1.9902,-1.9929,-1.9969,-1.9973,-1.9989,-1.9996,-1.9994,-2.0013,-2.0014,-2.0015,-2.0021,-2.0023,-2.0,-2.0,-2.0,-2.0,0,-1.9597,-1.9629,-1.9645,-1.9692,-1.9716,-1.9743,-1.9777,-1.9797,-1.9814,-1.9838,-1.9874,-1.9907,-1.9945,-1.9956,-1.9972,-1.9998,-1.9999,-2.0006,-2.001,-2.0015,-2.0021,-2.0024,-1.9998,-1.9999,-1.9999,-1.9999,0,0,-1.9592,-1.9655,-1.966,-1.9682,-1.9728,-1.9753,-1.9781,-1.9818,-1.9835,-1.9867,-1.9891,-1.9935,-1.9942,-1.9965,-1.9984,-1.9999,-2.001,-2.0005,-2.0006,-2.0005,-2.004,-2.0034,-2.0036,-2.002,-2.002,-2.0021,-2.0037,0,-1.9607,-1.966,-1.9687,-1.9728,-1.9757,-1.9781,-1.9806,-1.9836,-1.9859,-1.9886,-1.9911,-1.9941,-1.9949,-1.9963,-1.9979,-2.0005,-2.0018,-2.0005,-2.0041,-2.0042,-2.0031,-2.0039,-2.0033,-2.0046,-2.0039,-2.004,-2.004,0,-1.9632,-1.9664,-1.9707,-1.975,-1.9763,-1.9785,-1.9821,-1.9847,-1.9882,-1.9897,-1.9922,-1.9941,-1.997,-1.9972,-2.0013,-2.0003,-2.002,-2.0035,-2.0036,-2.004,-2.0041,-2.0043,-2.0051,-2.0053,-2.0044,-2.0044,-2.0043,0,-1.9622,-1.9677,-1.971,-1.9727,-1.9778,-1.9793,-1.9814,-1.9849,-1.9869,-1.9901,-1.9914,-1.9948,-1.9967,-1.9992,-2.0019,-2.0018,-2.0057,-2.0061,-2.007,-2.0069,-2.0077,-2.0076,-2.0088,-2.0088,-2.0088,-2.0088,-2.0088,0,-1.9636,-1.9662,-1.9706,-1.9727,-1.9756,-1.9787,-1.9814,-1.9838,-1.9868,-1.9892,-1.9915,-1.9938,-1.9973,-1.9999,-2.002,-2.005,-2.0058,-2.0071,-2.0076,-2.0069,-2.0067,-2.008,-2.008,-2.0088,-2.0088,-2.0088,-2.0088,0,-1.9631,-1.9662,-1.97,-1.9745,-1.9756,-1.9776,-1.9814,-1.9833,-1.9857,-1.9888,-1.9897,-1.9934,-1.9966,-1.9995,-2.0038,-2.0052,-2.0082,-2.0089,-2.0071,-2.0074,-2.0081,-2.008,-2.0101,-2.0105,-2.0103,-2.0103,-2.0103,0,-1.9638,-1.9658,-1.9705,-1.9723,-1.9745,-1.9774,-1.9795,-1.9826,-1.9847,-1.9888,-1.9902,-1.9936,-1.9965,-2.0015,-2.0045,-2.0077,-2.0085,-2.009,-2.009,-2.0082,-2.0085,-2.0083,-2.0085,-2.009,-2.009,-2.0089,-2.0089,0,-1.9646,-1.966,-1.969,-1.9725,-1.975,-1.9779,-1.9809,-1.9822,-1.9859,-1.9881,-1.9914,-1.9936,-1.998,-2.0013,-2.0049,-2.007,-2.0085,-2.0089,-2.0093,-2.0086,-2.0074,-2.008,-2.0069,-2.0089,-2.0089,-2.0089,-2.0089,-2.0089,-1.9647,-1.9666,-1.9702,-1.9734,-1.976,-1.9787,-1.9808,-1.9834,-1.9863,-1.9901,-1.9917,-1.9951,-1.9984,-2.0034,-2.0055,-2.0081,-2.0084,-2.009,-2.0091,-2.0092,-2.009,-2.007,-2.0087,-2.0087,-2.0088,-2.0088,-2.0088,0,-1.9656,-1.968,-1.971,-1.9751,-1.9776,-1.9789,-1.9822,-1.9842,-1.9872,-1.9902,-1.993,-1.9967,-1.9999,-2.0032,-2.0065,-2.008,-2.0088,-2.0088,-2.0087,-2.0091,-2.0086,-2.0079,-2.0081,-2.0081,-2.0081,-2.0081,-2.0081,-2.0081,-1.9664,-1.9696,-1.9714,-1.9759,-1.9783,-1.9817,-1.9835,-1.9859,-1.9884,-1.9925,-1.9952,-1.9973,-2.0004,-2.004,-2.0069,-2.0078,-2.0089,-2.0087,-2.0097,-2.0091,-2.0092,-2.0092,-2.0086,-2.0089,-2.0089,-2.0101,-2.0101,-2.0101]}]]